Tracking 35055 objects as of 18-Aug-2026
HD Live streaming from Space Station
objects crossing your sky now

COSMOS 57 DEB


COSMOS 57 DEB is no longer on orbit


NORAD ID: 1122
Int'l Code: 1965-012AA
Launch date: February 22, 1965
Source: Commonwealth of Independent States (former USSR) (CIS)
Launch site: TYURATAM MISSILE AND SPACE COMPLEX (TTMTR)
Decay date: 1965-03-01

Note: This is SATELLITE DEBRIS
Your satellite tracking list
Your tracking list is empty




NASA's NSSDC Master Catalog

Two Line Element Set (TLE):
1 01122U 65012 AA 65057.71175693  .00502176 +76581-3 +00000-0 0  9993
2 01122 064.6766 284.2024 0165361 035.8961 325.2038 16.17412153000711
Source of the keplerian elements: AFSPC